Location: Ash Observatory
(39.7321°N, 75.2004°W)
Time: 23:59:33
(UTC-04:00)

ISS - Pass Details

Date: 02 April 2019
Orbit: 408 x 410 km, 51.6° (Epoch: 22 April)

Event Time Altitude Azimuth Distance (km) Brightness Sun altitude
Rises 21:08:53 0° 314° (NW) 2,338 1.3 -19.8°
Reaches altitude 10° 21:11:17 10° 330° (NNW) 1,474 -0.2 -20.2°
Enters shadow 21:13:49 22° 20° (NNE) 953 -1.9 -20.7°
